World > North America > United States > California
Hourly Weather in Auburn, CaliforniaAuburn, California Hourly Weather

Auburn, CA Hourly Weather

Hourly Weather Auburn, CaliforniaHourly Weather in Auburn, CA
Lat: 38.89N, Lon: 121.08W  ICAO: KBAB
Web Search

Did you know? You can add this page to Bookmarks by pressing the Ctrl key & d key at the same time. Mac users press command & d.

Feedback

Auburn Hourly Weather

36 Hour Weather Scroll   °F Click to change Auburn hourly weather to Imperial units.Click to change Auburn hourly weather to Metric units. °C
Currently, Clear, temperature is 62°F17°C, dew point 44°F7°C, humidity 51%. Wind direction is N at 0 mph0 km/h with visibility of 10 mile(s) mi16 km. Barometric pressure is 30.13 in1020 mb.

Nov 27
2:00 PM

Nov 27
3:00 PM

Nov 27
4:00 PM

Nov 27
5:00 PM

Nov 27
6:00 PM

Nov 27
7:00 PM

Nov 27
8:00 PM

Nov 27
9:00 PM

Nov 27
10:00 PM

Nov 27
11:00 PM

Nov 28
MIDNIGHT

Nov 28
1:00 AM

Nov 28
2:00 AM

Nov 28
3:00 AM

Nov 28
4:00 AM

Nov 28
5:00 AM

Nov 28
6:00 AM

Nov 28
7:00 AM

Nov 28
8:00 AM

Nov 28
9:00 AM

Nov 28
10:00 AM

Nov 28
11:00 AM

Nov 28
NOON

Nov 28
1:00 PM

Nov 28
2:00 PM

Nov 28
3:00 PM

Nov 28
4:00 PM

Nov 28
5:00 PM

Nov 28
6:00 PM

Nov 28
7:00 PM

Nov 28
8:00 PM

Nov 28
9:00 PM

Nov 28
10:00 PM

Nov 28
11:00 PM

Nov 29
MIDNIGHT

Nov 29
1:00 AM
Clear Mostly Clear Mostly Clear Mostly Clear Mostly Clear Mostly Clear Mostly Clear Mostly Clear Mostly Clear Mostly Clear Clear Clear Clear Clear Clear Clear Mostly Clear Mostly Clear Mostly Clear Mostly Clear Mostly Clear Mostly Clear Mostly Clear Mostly Clear Mostly Clear Mostly Clear Mostly Clear Mostly Clear Clear Clear Clear Clear Clear Clear Clear Clear
Clear Mostly Clear Mostly Clear Mostly Clear Mostly Clear Mostly Clear Mostly Clear Mostly Clear Mostly Clear Mostly Clear Clear Clear Clear Clear Clear Clear Mostly Clear Mostly Clear Mostly Clear Mostly Clear Mostly Clear Mostly Clear Mostly Clear Mostly Clear Mostly Clear Mostly Clear Mostly Clear Mostly Clear Clear Clear Clear Clear Clear Clear Clear Clear
63°F17°C 64°F18°C 64°F18°C 61°F16°C 57°F14°C 54°F12°C 53°F12°C 53°F12°C 52°F11°C 51°F11°C 51°F11°C 50°F10°C 50°F10°C 49°F9°C 49°F9°C 49°F9°C 49°F9°C 49°F9°C 52°F11°C 54°F12°C 57°F14°C 59°F15°C 61°F16°C 63°F17°C 64°F18°C 64°F18°C 65°F18°C 62°F17°C 59°F15°C 56°F13°C 55°F13°C 53°F12°C 52°F11°C 52°F11°C 51°F11°C 51°F11°C
- - - - - - - - - - - - - - - - - - - - - - - - - - - - - - - - - - - -
0% 0% 0% 0% 0% 0% 0% 0% 0% 0% 0% 0% 0% 0% 0% 0% 0% 0% 0% 0% 0% 0% 0% 0% 0% 0% 0% 0% 0% 0% 0% 0% 0% 1% 1% 1%
49°F9°C 49°F9°C 49°F9°C 50°F10°C 50°F10°C 51°F11°C 51°F11°C 51°F11°C 51°F11°C 51°F11°C 50°F10°C 50°F10°C 50°F10°C 49°F9°C 49°F9°C 48°F9°C 48°F9°C 47°F8°C 48°F9°C 49°F9°C 50°F10°C 51°F11°C 52°F11°C 53°F12°C 53°F12°C 54°F12°C 54°F12°C 54°F12°C 53°F12°C 53°F12°C 52°F11°C 51°F11°C 50°F10°C 49°F9°C 49°F9°C 48°F9°C
60% 58% 58% 67% 77% 90% 93% 93% 96% 100% 96% 100% 100% 100% 100% 96% 96% 93% 86% 83% 77% 75% 72% 70% 67% 70% 68% 75% 80% 90% 90% 93% 93% 89% 93% 89%
SE ENE N NE ENE E E ESE SE SE SE SE ESE E NE ENE ENE ENE SE SW W W SSW SSW SSW SSW W S SE NE ENE E ESE ESE E E
3 mph 0 mph 0 mph 0 mph 4 mph 4 mph 4 mph 2 mph 2 mph 2 mph 2 mph 2 mph 2 mph 1 mph 1 mph 1 mph 1 mph 1 mph 1 mph 3 mph 3 mph 3 mph 3 mph 3 mph 3 mph 2 mph 2 mph 2 mph 3 mph 3 mph 3 mph 3 mph 3 mph 3 mph 1 mph 1 mph
10 mi16 km 10 mi16 km 10 mi16 km 10 mi16 km 10 mi16 km 10 mi16 km 10 mi16 km 10 mi16 km 10 mi16 km 10 mi16 km 10 mi16 km 10 mi16 km 10 mi16 km 10 mi16 km 10 mi16 km 10 mi16 km 10 mi16 km 10 mi16 km 10 mi16 km 10 mi16 km 10 mi16 km 10 mi16 km 10 mi16 km 10 mi16 km 10 mi16 km 10 mi16 km 10 mi16 km 10 mi16 km 10 mi16 km 10 mi16 km 10 mi16 km 10 mi16 km 10 mi16 km 10 mi16 km 10 mi16 km 10 mi16 km
Hour (PST)
Weather
Clouds
Temperature
Precip. Type
POP
Dewpoint
Humidity
Wind Direction
Wind Speed
Visibility
POP = Probability of Precipitation. ** Indicates missing data/values from model statistics.

24 Hour Forecast

Tonight - Mostly clear. Lows 44 to 52. Light winds.
Sunday - Sunny. Highs 64 to 72. Light winds.

48 Hour Forecast API Feed


Sat, Nov 27
2:00 pm

Sat, Nov 27
3:00 pm

Sat, Nov 27
4:00 pm

Sat, Nov 27
5:00 pm

Sat, Nov 27
6:00 pm

Sat, Nov 27
7:00 pm

Sat, Nov 27
8:00 pm

Sat, Nov 27
9:00 pm

Sat, Nov 27
10:00 pm

Sat, Nov 27
11:00 pm

Sun, Nov 28
Midnight

Sun, Nov 28
1:00 am

Sun, Nov 28
2:00 am

Sun, Nov 28
3:00 am

Sun, Nov 28
4:00 am

Sun, Nov 28
5:00 am

Sun, Nov 28
6:00 am

Sun, Nov 28
7:00 am

Sun, Nov 28
8:00 am

Sun, Nov 28
9:00 am

Sun, Nov 28
10:00 am

Sun, Nov 28
11:00 am

Sun, Nov 28
Noon

Sun, Nov 28
1:00 pm

Sun, Nov 28
2:00 pm

Sun, Nov 28
3:00 pm

Sun, Nov 28
4:00 pm

Sun, Nov 28
5:00 pm

Sun, Nov 28
6:00 pm

Sun, Nov 28
7:00 pm

Sun, Nov 28
8:00 pm

Sun, Nov 28
9:00 pm

Sun, Nov 28
10:00 pm

Sun, Nov 28
11:00 pm

Mon, Nov 29
Midnight

Mon, Nov 29
1:00 am

Mon, Nov 29
2:00 am

Mon, Nov 29
3:00 am

Mon, Nov 29
4:00 am

Mon, Nov 29
5:00 am

Mon, Nov 29
6:00 am

Mon, Nov 29
7:00 am

Mon, Nov 29
8:00 am

Mon, Nov 29
9:00 am

Mon, Nov 29
10:00 am

Mon, Nov 29
11:00 am

Mon, Nov 29
Noon

Mon, Nov 29
1:00 pm
SunnySunnySunnyClearClearClearClearClearClearClearClearClearClearClearClearClearClearClearSunnySunnySunnySunnySunnySunnySunnySunnySunnyClearClearClearClearClearClearClearClearClearClearClearClearClearClearClearSunnySunnySunnySunnySunnySunny
Sunny Sunny Sunny Clear Clear Clear Clear Clear Clear Clear Clear Clear Clear Clear Clear Clear Clear Clear Sunny Sunny Sunny Sunny Sunny Sunny Sunny Sunny Sunny Clear Clear Clear Clear Clear Clear Clear Clear Clear Clear Clear Clear Clear Clear Clear Sunny Sunny Sunny Sunny Sunny Sunny
65°F
18°C
65°F
18°C
64°F
18°C
60°F
16°C
56°F
13°C
55°F
13°C
53°F
12°C
53°F
12°C
53°F
12°C
53°F
12°C
52°F
11°C
52°F
11°C
52°F
11°C
52°F
11°C
51°F
11°C
51°F
11°C
51°F
11°C
51°F
11°C
51°F
11°C
53°F
12°C
59°F
15°C
65°F
18°C
67°F
19°C
68°F
20°C
69°F
21°C
70°F
21°C
70°F
21°C
66°F
19°C
59°F
15°C
57°F
14°C
55°F
13°C
55°F
13°C
55°F
13°C
54°F
12°C
54°F
12°C
54°F
12°C
53°F
12°C
53°F
12°C
53°F
12°C
52°F
11°C
52°F
11°C
52°F
11°C
52°F
11°C
54°F
12°C
60°F
15°C
65°F
19°C
67°F
20°C
69°F
21°C
43°F
6°C
44°F
7°C
45°F
7°C
47°F
8°C
45°F
7°C
44°F
7°C
43°F
6°C
43°F
6°C
43°F
6°C
42°F
6°C
42°F
5°C
41°F
5°C
40°F
5°C
39°F
4°C
39°F
4°C
38°F
3°C
37°F
3°C
37°F
3°C
37°F
3°C
38°F
4°C
40°F
5°C
43°F
6°C
44°F
7°C
45°F
7°C
46°F
8°C
48°F
9°C
50°F
10°C
53°F
12°C
49°F
10°C
48°F
9°C
46°F
8°C
46°F
8°C
45°F
7°C
44°F
7°C
43°F
6°C
42°F
6°C
41°F
5°C
40°F
4°C
39°F
4°C
38°F
3°C
38°F
3°C
37°F
3°C
37°F
3°C
38°F
3°C
40°F
5°C
42°F
6°C
44°F
7°C
46°F
8°C
30.09 in
1019 mb
30.09 in
1019 mb
30.09 in
1019 mb
30.09 in
1019 mb
30.12 in
1020 mb
30.12 in
1020 mb
30.15 in
1021 mb
30.15 in
1021 mb
30.15 in
1021 mb
30.15 in
1021 mb
30.18 in
1022 mb
30.18 in
1022 mb
30.18 in
1022 mb
30.18 in
1022 mb
30.18 in
1022 mb
30.18 in
1022 mb
30.18 in
1022 mb
30.21 in
1023 mb
30.21 in
1023 mb
30.24 in
1024 mb
30.24 in
1024 mb
30.24 in
1024 mb
30.21 in
1023 mb
30.21 in
1023 mb
30.18 in
1022 mb
30.15 in
1021 mb
30.15 in
1021 mb
30.15 in
1021 mb
30.18 in
1022 mb
30.18 in
1022 mb
30.18 in
1022 mb
30.18 in
1022 mb
30.18 in
1022 mb
30.18 in
1022 mb
30.18 in
1022 mb
30.18 in
1022 mb
30.18 in
1022 mb
30.18 in
1022 mb
30.18 in
1022 mb
30.18 in
1022 mb
30.18 in
1022 mb
30.18 in
1022 mb
30.21 in
1023 mb
30.21 in
1023 mb
30.21 in
1023 mb
30.21 in
1023 mb
30.18 in
1022 mb
30.15 in
1021 mb
45%46%49%60%67%68%68%68%68%68%67%66%65%63%61%60%59%58%57%57%49%44%43%44%44%46%50%62%69%71%71%71%69%68%66%64%63%61%60%58%57%56%56%55%48%43%43%42%
WWSWWSWWSWENEENEEEEEEENEENEENEENEENEENENEENEENEENEWWWWWWWNWNNEENEENEENEENEENEENEENEENEENEENEENEENEENEENENENEWNWWNWWNW
4 mph
6 km/h
3 mph
5 km/h
2 mph
3 km/h
2 mph
3 km/h
2 mph
3 km/h
3 mph
5 km/h
4 mph
6 km/h
3 mph
5 km/h
3 mph
5 km/h
3 mph
5 km/h
3 mph
5 km/h
3 mph
5 km/h
4 mph
6 km/h
4 mph
6 km/h
4 mph
6 km/h
4 mph
6 km/h
4 mph
6 km/h
3 mph
5 km/h
4 mph
6 km/h
3 mph
5 km/h
1 mph
1 km/h
2 mph
3 km/h
3 mph
5 km/h
4 mph
6 km/h
3 mph
5 km/h
3 mph
5 km/h
3 mph
4 km/h
2 mph
4 km/h
3 mph
4 km/h
4 mph
6 km/h
4 mph
6 km/h
4 mph
6 km/h
4 mph
6 km/h
4 mph
6 km/h
4 mph
6 km/h
4 mph
6 km/h
4 mph
6 km/h
4 mph
6 km/h
4 mph
6 km/h
4 mph
6 km/h
4 mph
6 km/h
4 mph
6 km/h
3 mph
5 km/h
3 mph
5 km/h
1 mph
2 km/h
2 mph
3 km/h
4 mph
6 km/h
3 mph
5 km/h
0%0%0%0%0%0%0%0%0%0%0%0%0%0%0%0%0%0%0%0%0%0%0%0%0%0%0%0%0%0%0%0%0%0%0%0%0%0%0%0%0%0%0%0%0%0%0%0%
6 mi
10 km
6 mi
10 km
6 mi
10 km
6 mi
10 km
6 mi
10 km
6 mi
10 km
6 mi
10 km
6 mi
10 km
6 mi
10 km
6 mi
10 km
6 mi
10 km
6 mi
10 km
6 mi
10 km
6 mi
10 km
6 mi
10 km
6 mi
10 km
6 mi
10 km
6 mi
10 km
6 mi
10 km
6 mi
10 km
6 mi
10 km
6 mi
10 km
6 mi
10 km
6 mi
10 km
6 mi
10 km
6 mi
10 km
6 mi
10 km
6 mi
10 km
6 mi
10 km
6 mi
10 km
6 mi
10 km
6 mi
10 km
6 mi
10 km
6 mi
10 km
6 mi
10 km
6 mi
10 km
6 mi
10 km
6 mi
10 km
6 mi
10 km
6 mi
10 km
6 mi
10 km
6 mi
10 km
6 mi
10 km
6 mi
10 km
6 mi
10 km
6 mi
10 km
6 mi
10 km
6 mi
10 km

Day/Time
Weather
Condition
Temperature
Dew Point
Pressure
Humidity
Wind Direction
Wind Speed
Prob Precip %
Visibility
Prob Precip % = Probability of Precipitation.